Date String (YYYY-MM-DD hh:mm:ss) UTC,Instrument flags,absolute air pressure of the measurement (hPa),sample flow rate (lpm),inlet stack bypass flow (lpm),air temperature of the measurement (°C),ambient temperature measured by the external sensor (°C),aerosol sample conditioner tube jacket temperature (°C),OPC LED temperature (°C),internal box temperature (°C),relative humidity of the measurement (%),span deviation,mass concentration of particles derived from Lorenz-Mie calculation of OPC scattering (μg/m³),mass concentration of particles derived from Lorenz-Mie calculation of OPC scattering (μg/m³),mass concentration of particles derived from Lorenz-Mie calculation of OPC scattering (μg/m³)
DateTimeUTC,F1_M11,P_M11,Q1_M11,Q2_M11,T1_M11,T2_M11,T3_M11,T4_M11,T5_M11,U1_M11,ZSPAN_M11,X0_M11,X2_M11,X1_M11
2024-02-17 06:00:00,SystemResetWarning,0836.1,5.00,000.00,018.8,018.8,000.0,027.1,020.6,11.6,0000.0,0004.08,0003.20,0003.11
2024-02-17 06:01:00,SystemResetWarning,0836.1,5.00,000.00,018.7,018.6,000.0,027.1,020.4,11.6,0000.0,0003.89,0003.21,0003.11
2024-02-17 06:02:00,SystemResetWarning,0836.1,5.00,000.00,018.6,018.4,000.0,027.0,020.3,11.6,0000.0,0003.73,0003.22,0003.11
2024-02-17 06:03:00,SystemResetWarning,0836.1,4.99,000.00,018.6,018.3,000.0,027.0,020.1,11.6,0000.0,0003.72,0003.21,0003.11
2024-02-17 06:04:00,SystemResetWarning,0836.1,5.00,000.00,018.5,018.1,000.0,027.0,020.0,11.7,0000.0,0003.67,0003.19,0003.10
2024-02-17 06:05:00,SystemResetWarning,0836.1,5.00,000.00,018.5,018.0,000.0,027.0,020.0,11.7,0000.0,0003.59,0003.16,0003.06
2024-02-17 06:06:00,SystemResetWarning,0836.1,5.00,000.00,018.4,017.8,000.0,027.0,020.0,11.7,0000.0,0003.52,0003.14,0003.02
2024-02-17 06:07:00,SystemResetWarning,0836.1,5.01,000.00,018.4,017.7,000.0,027.0,020.0,11.8,0000.0,0003.49,0003.13,0003.00
2024-02-17 06:08:00,SystemResetWarning,0836.1,5.01,000.00,018.4,017.6,000.0,027.1,020.0,11.8,0000.0,0003.43,0003.12,0002.99
2024-02-17 06:09:00,SystemResetWarning,0836.2,5.00,000.00,018.4,017.6,000.0,027.1,020.1,11.8,0000.0,0003.47,0003.12,0003.00
2024-02-17 06:10:00,SystemResetWarning,0836.2,5.01,000.00,018.5,018.3,000.0,027.2,020.5,11.7,0000.0,0003.54,0003.14,0003.01
2024-02-17 06:11:00,SystemResetWarning,0836.2,4.99,000.00,018.7,019.1,000.0,027.2,021.0,11.6,0000.0,0003.50,0003.13,0003.02
2024-02-17 06:12:00,SystemResetWarning,0836.1,4.99,000.00,018.8,019.1,000.0,027.2,020.9,11.5,0000.0,0003.41,0003.12,0003.03
2024-02-17 06:13:00,SystemResetWarning,0836.1,5.01,000.00,018.8,018.9,000.0,027.1,020.7,11.5,0000.0,0003.45,0003.13,0003.04
2024-02-17 06:14:00,SystemResetWarning,0836.1,5.00,000.00,018.7,018.7,000.0,027.1,020.5,11.5,0000.0,0003.49,0003.14,0003.05
2024-02-17 06:15:00,SystemResetWarning,0836.1,5.00,000.00,018.7,018.5,000.0,027.1,020.4,11.6,0000.0,0003.59,0003.17,0003.08
2024-02-17 06:16:00,SystemResetWarning,0836.0,4.99,000.00,018.7,018.4,000.0,027.0,020.3,11.6,0000.0,0004.15,0003.18,0003.10
2024-02-17 06:17:00,SystemResetWarning,0835.9,4.99,000.00,018.6,018.2,000.0,027.0,020.2,11.6,0000.0,0004.22,0003.20,0003.11
2024-02-17 06:18:00,SystemResetWarning,0835.9,5.00,000.00,018.5,018.1,000.0,027.0,020.1,11.7,0000.0,0004.27,0003.21,0003.12
2024-02-17 06:19:00,SystemResetWarning,0835.9,5.00,000.00,018.5,018.0,000.0,027.0,020.0,11.7,0000.0,0004.30,0003.22,0003.13
2024-02-17 06:20:00,SystemResetWarning,0836.1,5.01,000.00,018.4,017.9,000.0,027.0,020.0,11.8,0000.0,0004.29,0003.23,0003.14
2024-02-17 06:21:00,SystemResetWarning,0836.1,5.00,000.00,018.4,017.8,000.0,027.0,020.0,11.8,0000.0,0004.23,0003.23,0003.14
2024-02-17 06:22:00,SystemResetWarning,0836.1,5.01,000.00,018.4,017.8,000.0,027.0,020.0,11.8,0000.0,0004.21,0003.23,0003.15
2024-02-17 06:23:00,SystemResetWarning,0836.1,5.01,000.00,018.4,017.7,000.0,027.0,020.0,11.8,0000.0,0004.31,0003.24,0003.15
2024-02-17 06:24:00,SystemResetWarning,0835.9,5.01,000.00,018.3,017.7,000.0,027.0,020.0,11.8,0000.0,0004.34,0003.25,0003.16
2024-02-17 06:25:00,SystemResetWarning,0835.9,5.00,000.00,018.3,017.6,000.0,027.0,020.0,11.8,0000.0,0004.33,0003.25,0003.16
2024-02-17 06:26:00,SystemResetWarning,0835.9,5.00,000.00,018.3,017.7,000.0,027.0,020.0,11.8,0000.0,0004.24,0003.24,0003.16
2024-02-17 06:27:00,SystemResetWarning,0835.9,5.00,000.00,018.4,018.2,000.0,027.1,020.4,11.8,0000.0,0003.67,0003.24,0003.17
2024-02-17 06:28:00,SystemResetWarning,0836.0,5.00,000.00,018.6,019.0,000.0,027.2,020.9,11.7,0000.0,0003.60,0003.23,0003.17
2024-02-17 06:29:00,SystemResetWarning,0836.1,4.99,000.00,018.8,019.1,000.0,027.1,020.9,11.5,0000.0,0003.55,0003.23,0003.18
2024-02-17 06:30:00,SystemResetWarning,0836.1,4.99,000.00,018.8,018.9,000.0,027.1,020.7,11.5,0000.0,0003.74,0003.27,0003.19
2024-02-17 06:31:00,SystemResetWarning,0836.1,5.01,000.00,018.7,018.7,000.0,027.0,020.5,11.5,0000.0,0003.81,0003.30,0003.21
2024-02-17 06:32:00,SystemResetWarning,0836.1,5.01,000.00,018.7,018.6,000.0,027.0,020.4,11.6,0000.0,0004.32,0003.33,0003.23
2024-02-17 06:33:00,SystemResetWarning,0836.1,5.00,000.00,018.7,018.4,000.0,027.0,020.3,11.6,0000.0,0004.69,0003.34,0003.24
2024-02-17 06:34:00,SystemResetWarning,0836.1,5.00,000.00,018.6,018.3,000.0,027.0,020.3,11.6,0000.0,0004.63,0003.34,0003.25
2024-02-17 06:35:00,SystemResetWarning,0835.9,4.99,000.00,018.6,018.2,000.0,027.0,020.2,11.6,0000.0,0004.62,0003.35,0003.26
2024-02-17 06:36:00,SystemResetWarning,0835.9,4.99,000.00,018.5,018.1,000.0,026.9,020.1,11.6,0000.0,0004.66,0003.37,0003.28
2024-02-17 06:37:00,SystemResetWarning,0835.8,5.00,000.00,018.5,018.0,000.0,026.9,020.1,11.6,0000.0,0004.68,0003.39,0003.29
2024-02-17 06:38:00,SystemResetWarning,0835.8,5.00,000.00,018.4,017.9,000.0,026.9,020.0,11.7,0000.0,0004.71,0003.40,0003.30
2024-02-17 06:39:00,SystemResetWarning,0835.8,5.01,000.00,018.4,017.8,000.0,026.9,020.0,11.7,0000.0,0004.74,0003.42,0003.32
2024-02-17 06:40:00,SystemResetWarning,0835.8,5.01,000.00,018.4,017.8,000.0,026.9,020.0,11.7,0000.0,0004.76,0003.43,0003.33
2024-02-17 06:41:00,SystemResetWarning,0835.9,5.01,000.00,018.3,017.7,000.0,026.9,020.0,11.7,0000.0,0004.61,0003.42,0003.34
2024-02-17 06:42:00,SystemResetWarning,0836.0,5.00,000.00,018.3,017.7,000.0,026.9,020.0,11.8,0000.0,0004.58,0003.42,0003.34
2024-02-17 06:43:00,SystemResetWarning,0836.1,5.01,000.00,018.3,017.7,000.0,026.9,020.0,11.8,0000.0,0004.26,0003.41,0003.35
2024-02-17 06:44:00,SystemResetWarning,0836.1,5.00,000.00,018.3,017.6,000.0,026.9,020.0,11.8,0000.0,0003.85,0003.44,0003.37
2024-02-17 06:45:00,SystemResetWarning,0836.1,5.00,000.00,018.3,017.6,000.0,026.9,020.0,11.8,0000.0,0003.91,0003.47,0003.39
2024-02-17 06:46:00,SystemResetWarning,0836.1,4.99,000.00,018.3,017.7,000.0,026.9,020.1,11.8,0000.0,0003.98,0003.50,0003.42
2024-02-17 06:47:00,SystemResetWarning,0836.1,5.00,000.00,018.4,018.4,000.0,027.0,020.5,11.7,0000.0,0004.15,0003.52,0003.44
2024-02-17 06:48:00,SystemResetWarning,0836.1,5.00,000.00,018.7,019.1,000.0,027.1,021.0,11.6,0000.0,0004.23,0003.55,0003.46
2024-02-17 06:49:00,SystemResetWarning,0836.1,4.98,000.00,018.7,019.0,000.0,027.1,020.9,11.5,0000.0,0004.30,0003.57,0003.47
2024-02-17 06:50:00,SystemResetWarning,0836.1,5.00,000.00,018.7,018.8,000.0,027.0,020.7,11.5,0000.0,0004.33,0003.59,0003.49
2024-02-17 06:51:00,SystemResetWarning,0836.0,5.01,000.00,018.7,018.7,000.0,027.0,020.5,11.5,0000.0,0004.37,0003.61,0003.51
2024-02-17 06:52:00,SystemResetWarning,0835.9,5.01,000.00,018.6,018.5,000.0,027.0,020.4,11.5,0000.0,0004.36,0003.61,0003.51
2024-02-17 06:53:00,SystemResetWarning,0835.9,4.99,000.00,018.6,018.3,000.0,027.0,020.3,11.6,0000.0,0004.38,0003.62,0003.52
2024-02-17 06:54:00,SystemResetWarning,0836.0,4.99,000.00,018.6,018.2,000.0,026.9,020.2,11.6,0000.0,0004.36,0003.62,0003.53
2024-02-17 06:55:00,SystemResetWarning,0836.1,5.01,000.00,018.5,018.1,000.0,026.9,020.1,11.6,0000.0,0004.35,0003.63,0003.54
2024-02-17 06:56:00,SystemResetWarning,0836.2,5.00,000.00,018.5,018.0,000.0,026.9,020.1,11.7,0000.0,0004.33,0003.64,0003.55
2024-02-17 06:57:00,SystemResetWarning,0836.2,5.00,000.00,018.4,017.9,000.0,026.9,020.1,11.7,0000.0,0004.31,0003.64,0003.55
2024-02-17 06:58:00,SystemResetWarning,0836.2,5.00,000.00,018.4,017.9,000.0,026.9,020.0,11.7,0000.0,0004.18,0003.64,0003.56
2024-02-17 06:59:00,SystemResetWarning,0836.2,4.99,000.00,018.4,017.8,000.0,026.9,020.0,11.8,0000.0,0004.17,0003.64,0003.57
